Fort Polk, LA

7:46 AM CDT on September 26, 2016 (GMT -0500)
Polk Army Air Field

Weather History for KPOE - November, 2012

Change the Weather History Date:

Thursday, November 8, 2012

  Actual Average Record
Temperature  
Mean Temperature 58 °F -  
Max Temperature 70 °F 68 °F 80 °F (2005)
Min Temperature 46 °F 48 °F 35 °F (1997)
Degree Days  
Heating Degree Days 7    
Growing Degree Days 8 (Base 50)    
Moisture  
Dew Point 39 °F    
Average Humidity 55    
Maximum Humidity 77    
Minimum Humidity 33    
Precipitation  
Precipitation 0.00 in - - ()
Sea Level Pressure  
Sea Level Pressure 30.19 in    
Wind  
Wind Speed 6 mph (SE)    
Max Wind Speed 13 mph    
Max Gust Speed -    
Visibility 10 miles    
Events      
Averages and records for this station are not official NWS values.
T = Trace of Precipitation, MM = Missing Value Source: NWS Daily Summary

Daily Weather History Graph

Daily Weather History Graph

Search for Another Location

Airport or City:

Trip Planner

Search our weather history database for the weather conditions in past years. The results will help you decide how hot, cold, wet, or windy it might be!

Date:

Astronomy

Nov. 08, 2012 Rise Set
Actual Time 6:34 AM CST 5:18 PM CST
Civil Twilight 6:08 AM CST 5:43 PM CST
Nautical Twilight 5:39 AM CST 6:12 PM CST
Astronomical Twilight 5:11 AM CST 6:41 PM CST
Moon 12:52 AM CST (11/8) 1:39 PM CST (11/8)
Length of Visible Light 11h 34m
Length of Day
10h 44m
Waning Crescent, 32% of the Moon is Illuminated
Nov 8
Waning Crescent
Nov 13
New
Nov 20
First Quarter
Nov 28
Full
Dec 6
Last Quarter

Hourly Weather History & Observations

Time (CST) Temp. Dew Point Humidity Pressure Visibility Wind Dir Wind Speed Gust Speed Precip Events Conditions
12:55 AM 50.0 °F 36.0 °F 59% 30.17 in 10.0 mi East 3.5 mph - N/A   Clear
1:55 AM 50.0 °F 36.0 °F 59% 30.17 in 10.0 mi ESE 6.9 mph - N/A   Clear
2:55 AM 48.0 °F 36.0 °F 63% 30.17 in 10.0 mi East 4.6 mph - N/A   Clear
3:55 AM 48.0 °F 36.0 °F 63% 30.18 in 10.0 mi ESE 5.8 mph - N/A   Clear
4:55 AM 48.0 °F 36.0 °F 63% 30.19 in 10.0 mi ESE 8.1 mph - N/A   Clear
5:55 AM 46.9 °F 36.0 °F 66% 30.20 in 10.0 mi ESE 5.8 mph - N/A   Clear
6:55 AM 48.0 °F 35.1 °F 61% 30.22 in 10.0 mi ESE 8.1 mph - N/A   Clear
7:55 AM 51.1 °F 36.0 °F 56% 30.25 in 10.0 mi ESE 9.2 mph - N/A   Clear
8:55 AM 55.0 °F 35.1 °F 47% 30.27 in 10.0 mi SE 12.7 mph - N/A   Clear
9:55 AM 57.9 °F 36.0 °F 44% 30.27 in 10.0 mi SE 6.9 mph - N/A   Clear
10:55 AM 62.1 °F 37.0 °F 39% 30.26 in 10.0 mi SSE 8.1 mph - N/A   Clear
11:55 AM 64.9 °F 37.9 °F 37% 30.22 in 10.0 mi SSE 9.2 mph - N/A   Clear
12:55 PM 66.9 °F 39.0 °F 36% 30.18 in 10.0 mi Variable 4.6 mph - N/A   Clear
1:55 PM 69.1 °F 39.0 °F 33% 30.17 in 10.0 mi SE 4.6 mph - N/A   Clear
2:55 PM 70.0 °F 41.0 °F 35% 30.15 in 10.0 mi SE 9.2 mph - N/A   Clear
3:55 PM 69.1 °F 42.1 °F 38% 30.16 in 10.0 mi SSE 8.1 mph - N/A   Clear
4:55 PM 66.0 °F 43.0 °F 43% 30.15 in 10.0 mi SE 5.8 mph - N/A   Clear
5:55 PM 57.9 °F 45.0 °F 62% 30.16 in 10.0 mi SE 4.6 mph - N/A   Clear
6:55 PM 55.9 °F 45.0 °F 67% 30.16 in 10.0 mi SE 4.6 mph - N/A   Clear
7:55 PM 55.0 °F 44.1 °F 67% 30.17 in 10.0 mi SE 5.8 mph - N/A   Clear
8:55 PM 53.1 °F 43.0 °F 69% 30.17 in 10.0 mi SE 6.9 mph - N/A   Clear
9:55 PM 54.0 °F 43.0 °F 66% 30.17 in 10.0 mi South 4.6 mph - N/A   Clear
10:55 PM 55.0 °F 45.0 °F 69% 30.17 in 10.0 mi South 5.8 mph - N/A   Clear
11:55 PM 52.0 °F 45.0 °F 77% 30.17 in 10.0 mi South 5.8 mph - N/A   Clear